Weather History for Spokane Fairchild, WA

Change the Weather History Date:

Wednesday, November 21, 2012

  Actual Average Record
Temperature  
Mean Temperature 38 °F -  
Max Temperature 43 °F 38 °F 57 °F (2002)
Min Temperature 30 °F 27 °F 6 °F (2003)
Degree Days  
Heating Degree Days 28    
Moisture  
Dew Point 38 °F    
Average Humidity 98    
Maximum Humidity 100    
Minimum Humidity 81    
Precipitation  
Precipitation 0.19 in - - ()
Sea Level Pressure  
Sea Level Pressure 29.83 in    
Wind  
Wind Speed 11 mph (SSW)    
Max Wind Speed 30 mph    
Max Gust Speed 38 mph    
Visibility 9 miles    
Events Rain , Snow    
Averages and records for this station are not official NWS values.
T = Trace of Precipitation, MM = Missing Value Source: NWS Daily Summary

Daily Weather History Graph

Daily Weather History Graph

Search for Another Location

Airport:

Trip Planner

Search our weather history database for the weather conditions in past years. The results will help you decide how hot, cold, wet, or windy it might be!

Date:

Astronomy

Nov. 21, 2012 Rise Set
Actual Time 7:05 AM PST 4:07 PM PST
Civil Twilight 6:31 AM PST 4:41 PM PST
Nautical Twilight 5:53 AM PST 5:19 PM PST
Astronomical Twilight 5:16 AM PST 5:56 PM PST
Moon 12:49 PM PST (11/21) 12:03 AM PST (11/21)
Length of Visible Light 10h 10m
Length of Day
9h 02m
Waxing Gibbous, 63% of the Moon is Illuminated
Nov 21
Waxing Gibbous
Nov 28
Full
Dec 6
Last Quarter
Dec 13
New
Dec 19
First Quarter

Hourly Weather History & Observations

Time (PST) Temp. Windchill Dew Point Humidity Pressure Visibility Wind Dir Wind Speed Gust Speed Precip Events Conditions
12:58 AM 41.2 °F 37.3 °F 41.2 °F 100% 29.71 in 10.0 mi SE 5.8 mph - N/A   Mostly Cloudy
1:02 AM 41.0 °F 37.1 °F 41.0 °F 100% 29.67 in 10.0 mi SSE 5.8 mph - N/A Rain Light Rain
1:06 AM 41.0 °F 38.0 °F 41.0 °F 100% 29.67 in 10.0 mi SSE 4.6 mph - N/A Rain Light Rain
1:19 AM 41.0 °F - 41.0 °F 100% 29.67 in 10.0 mi Variable 1.2 mph - N/A   Overcast
1:21 AM 41.0 °F - 41.0 °F 100% 29.67 in 10.0 mi Variable 2.3 mph - N/A Rain Light Rain
1:51 AM 41.0 °F - 41.0 °F 100% 29.68 in 9.0 mi Variable 1.2 mph - N/A Rain Light Rain
1:58 AM 41.7 °F - 41.7 °F 100% 29.71 in 9.0 mi NNW 2.3 mph - 0.00 in Rain Light Rain
2:02 AM 41.0 °F - 41.0 °F 100% 29.67 in 10.0 mi North 1.2 mph - N/A   Overcast
2:04 AM 41.0 °F - 41.0 °F 100% 29.67 in 10.0 mi North 2.3 mph - N/A Rain Light Rain
2:14 AM 41.0 °F 39.0 °F 41.0 °F 100% 29.67 in 10.0 mi East 3.5 mph - N/A Rain Light Rain
2:24 AM 39.2 °F 35.0 °F 39.2 °F 100% 29.65 in 10.0 mi ESE 5.8 mph - N/A Rain Light Rain
2:35 AM 39.2 °F 37.0 °F 39.2 °F 100% 29.65 in 10.0 mi East 3.5 mph - N/A   Mostly Cloudy
2:58 AM 39.6 °F 37.4 °F 39.6 °F 100% 29.67 in 10.0 mi East 3.5 mph - 0.00 in   Overcast
3:12 AM 39.2 °F 35.0 °F 39.2 °F 100% 29.64 in 10.0 mi SE 5.8 mph - N/A   Overcast
3:35 AM 39.2 °F 37.0 °F 39.2 °F 100% 29.63 in 10.0 mi ESE 3.5 mph - N/A   Overcast
3:58 AM 39.9 °F 36.7 °F 39.9 °F 100% 29.67 in 10.0 mi SE 4.6 mph - 0.00 in   Overcast
4:03 AM 39.2 °F 35.9 °F 39.2 °F 100% 29.63 in 10.0 mi SSE 4.6 mph - N/A Rain Light Rain
4:19 AM 39.2 °F 35.9 °F 39.2 °F 100% 29.62 in 10.0 mi ESE 4.6 mph - N/A   Overcast
4:58 AM 40.1 °F 36.9 °F 40.1 °F 100% 29.65 in 10.0 mi East 4.6 mph - 0.00 in   Overcast
5:21 AM 41.0 °F - 41.0 °F 100% 29.61 in 10.0 mi East 1.2 mph - N/A Rain Light Rain
5:43 AM 39.2 °F - 39.2 °F 100% 29.61 in 9.0 mi ENE 2.3 mph - N/A Rain Light Rain
5:58 AM 39.9 °F 37.8 °F 39.9 °F 100% 29.65 in 5.0 mi NNW 3.5 mph - 0.03 in Rain Rain
6:13 AM 39.2 °F 35.0 °F 39.2 °F 100% 29.61 in 10.0 mi NE 5.8 mph - N/A Rain Light Rain
6:52 AM 41.0 °F 35.8 °F 41.0 °F 100% 29.62 in 10.0 mi East 8.1 mph - N/A Rain Light Rain
6:57 AM 41.0 °F 37.1 °F 41.0 °F 100% 29.62 in 8.0 mi East 5.8 mph - N/A Rain Light Rain
6:58 AM 40.5 °F 36.5 °F 40.5 °F 100% 29.65 in 8.0 mi East 5.8 mph - 0.03 in Rain Light Rain
7:08 AM 41.0 °F 38.0 °F 41.0 °F 100% 29.62 in 5.0 mi ESE 4.6 mph - N/A Rain Rain
7:13 AM 41.0 °F 38.0 °F 41.0 °F 100% 29.63 in 9.0 mi ESE 4.6 mph - N/A Rain Light Rain
7:18 AM 41.0 °F 35.8 °F 41.0 °F 100% 29.66 in 10.0 mi South 8.1 mph - N/A Rain Light Rain
7:28 AM 39.2 °F 30.5 °F 39.2 °F 100% 29.66 in 2.5 mi West 16.1 mph - N/A Rain Rain
7:29 AM 37.4 °F 28.5 °F 37.4 °F 100% 29.66 in 2.0 mi WNW 15.0 mph - N/A Rain Rain
7:34 AM 37.4 °F 30.3 °F 37.4 °F 100% 29.66 in 1.8 mi West 10.4 mph - N/A Rain Heavy Rain
7:39 AM 37.4 °F 31.4 °F 37.4 °F 100% 29.66 in 3.0 mi West 8.1 mph - N/A Rain Light Rain
7:44 AM 35.6 °F 30.7 °F 35.6 °F 100% 29.66 in 6.0 mi West 5.8 mph - N/A Rain Light Rain
7:54 AM 37.4 °F 32.8 °F 37.4 °F 100% 29.66 in 10.0 mi SW 5.8 mph - N/A   Overcast
7:58 AM 37.4 °F 32.1 °F 37.4 °F 100% 29.70 in 10.0 mi WSW 6.9 mph - 0.10 in   Overcast
8:12 AM 39.2 °F 34.2 °F 39.2 °F 100% 29.66 in 10.0 mi SW 6.9 mph - N/A Rain Light Rain
8:17 AM 41.0 °F 33.9 °F 41.0 °F 100% 29.66 in 10.0 mi SSW 12.7 mph 17.3 mph N/A Rain Light Rain
8:37 AM 41.0 °F 31.9 °F 41.0 °F 100% 29.67 in 10.0 mi SW 19.6 mph 24.2 mph N/A   Overcast
8:51 AM 39.2 °F 29.3 °F 39.2 °F 100% 29.69 in 10.0 mi SSW 20.7 mph 29.9 mph N/A   Light Drizzle
8:58 AM 39.7 °F 30.0 °F 39.7 °F 100% 29.73 in 10.0 mi SSW 20.7 mph 25.3 mph 0.01 in   Light Drizzle
9:01 AM 39.2 °F 30.2 °F 39.2 °F 100% 29.69 in 10.0 mi SSW 17.3 mph 25.3 mph N/A   Overcast
9:39 AM 39.2 °F 28.7 °F 39.2 °F 100% 29.72 in 10.0 mi SSW 23.0 mph 27.6 mph N/A   Light Drizzle
9:48 AM 39.2 °F 29.3 °F 39.2 °F 100% 29.73 in 10.0 mi SSW 20.7 mph 36.8 mph N/A   Overcast
9:58 AM 39.4 °F 28.5 °F 39.4 °F 100% 29.77 in 10.0 mi SSW 25.3 mph 32.2 mph 0.00 in   Overcast
10:23 AM 41.0 °F 29.8 °F 41.0 °F 100% 29.76 in 10.0 mi SW 29.9 mph 38.0 mph N/A   Overcast
10:38 AM 41.0 °F 30.9 °F 41.0 °F 100% 29.76 in 10.0 mi SSW 24.2 mph 38.0 mph N/A   Mostly Cloudy
10:58 AM 40.5 °F 30.9 °F 40.5 °F 100% 29.80 in 10.0 mi SSW 20.7 mph 34.5 mph N/A   Overcast
11:48 AM 41.0 °F 30.2 °F 41.0 °F 100% 29.79 in 10.0 mi SSW 27.6 mph 33.4 mph N/A   Light Drizzle
11:58 AM 41.4 °F 31.2 °F 41.4 °F 100% 29.82 in 10.0 mi SW 25.3 mph 33.4 mph 0.00 in   Light Drizzle
11:59 AM 42.8 °F 33.3 °F 42.8 °F 100% 29.78 in 10.0 mi SW 24.2 mph 33.4 mph N/A   Mostly Cloudy
12:09 PM 42.8 °F 33.5 °F 42.8 °F 100% 29.79 in 10.0 mi SW 23.0 mph 33.4 mph N/A   Scattered Clouds
12:16 PM 42.8 °F 32.9 °F 42.8 °F 100% 29.80 in 10.0 mi SSW 26.5 mph 32.2 mph N/A   Partly Cloudy
12:33 PM 42.8 °F 33.1 °F 42.8 °F 100% 29.80 in 10.0 mi SSW 25.3 mph 35.7 mph N/A   Partly Cloudy
12:58 PM 42.8 °F 33.1 °F 42.3 °F 98% 29.86 in 10.0 mi SW 25.3 mph 35.7 mph 0.02 in   Partly Cloudy
12:59 PM 42.8 °F 33.1 °F 42.8 °F 100% 29.82 in 10.0 mi SW 25.3 mph 35.7 mph N/A   Partly Cloudy
1:22 PM 42.8 °F 33.1 °F 39.2 °F 87% 29.84 in 10.0 mi SW 25.3 mph 31.1 mph N/A   Mostly Cloudy
1:23 PM 42.8 °F 33.5 °F 41.0 °F 93% 29.84 in 10.0 mi SW 23.0 mph 31.1 mph N/A   Light Drizzle
1:35 PM 42.8 °F 33.3 °F 39.2 °F 87% 29.84 in 10.0 mi SW 24.2 mph 33.4 mph N/A   Mostly Cloudy
1:37 PM 42.8 °F 34.5 °F 39.2 °F 87% 29.84 in 10.0 mi SW 18.4 mph 33.4 mph N/A   Mostly Cloudy
1:53 PM 42.8 °F 33.8 °F 41.0 °F 93% 29.84 in 10.0 mi SSW 21.9 mph 33.4 mph N/A   Mostly Cloudy
1:58 PM 43.0 °F 33.5 °F 40.5 °F 91% 29.88 in 10.0 mi SSW 24.2 mph 33.4 mph 0.00 in   Scattered Clouds
2:11 PM 42.8 °F 34.3 °F 39.2 °F 87% 29.85 in 10.0 mi SW 19.6 mph 27.6 mph N/A   Partly Cloudy
2:15 PM 42.8 °F 34.0 °F 39.2 °F 87% 29.85 in 10.0 mi SSW 20.7 mph 27.6 mph N/A   Partly Cloudy
2:16 PM 42.8 °F 34.8 °F 39.2 °F 87% 29.85 in 10.0 mi SSW 17.3 mph 27.6 mph N/A   Partly Cloudy
2:51 PM 41.0 °F 33.1 °F 41.0 °F 100% 29.88 in 10.0 mi SSW 15.0 mph - N/A   Light Drizzle
2:58 PM 41.7 °F 33.4 °F 40.6 °F 96% 29.93 in 10.0 mi SSW 17.3 mph - 0.00 in   Light Drizzle
3:03 PM 41.0 °F 32.8 °F 39.2 °F 93% 29.88 in 10.0 mi SSW 16.1 mph 20.7 mph N/A   Light Drizzle
3:05 PM 41.0 °F 32.8 °F 39.2 °F 93% 29.88 in 10.0 mi SSW 16.1 mph 23.0 mph N/A   Overcast
3:28 PM 41.0 °F 33.5 °F 37.4 °F 87% 29.89 in 10.0 mi SSW 13.8 mph - N/A   Light Drizzle
3:58 PM 41.2 °F 33.4 °F 35.6 °F 81% 29.96 in 10.0 mi SSW 15.0 mph 24.2 mph 0.00 in   Light Drizzle
4:09 PM 41.0 °F 32.8 °F 37.4 °F 87% 29.91 in 10.0 mi SSW 16.1 mph - N/A   Mostly Cloudy
4:20 PM 41.0 °F 32.8 °F 39.2 °F 93% 29.91 in 10.0 mi SSW 16.1 mph - N/A   Light Drizzle
4:30 PM 41.0 °F 32.5 °F 39.2 °F 93% 29.91 in 10.0 mi SSW 17.3 mph 25.3 mph N/A   Mostly Cloudy
4:54 PM 39.2 °F 29.3 °F 37.4 °F 93% 29.92 in 10.0 mi SSW 20.7 mph 31.1 mph N/A   Light Drizzle
4:58 PM 39.2 °F 29.6 °F 37.4 °F 93% 29.97 in 10.0 mi SW 19.6 mph 28.8 mph 0.00 in   Light Drizzle
5:35 PM 39.2 °F 29.8 °F 39.2 °F 100% 29.94 in 10.0 mi SW 18.4 mph 28.8 mph N/A   Mostly Cloudy
5:36 PM 39.2 °F 29.6 °F 39.2 °F 100% 29.94 in 10.0 mi SW 19.6 mph 28.8 mph N/A   Overcast
5:41 PM 39.2 °F 28.0 °F 39.2 °F 100% 29.95 in 10.0 mi SW 26.5 mph 35.7 mph N/A   Overcast
5:46 PM 37.4 °F 25.2 °F 37.4 °F 100% 29.95 in 10.0 mi WSW 28.8 mph 36.8 mph N/A Snow Light Snow
5:58 PM 34.5 °F 21.8 °F 34.5 °F 100% 30.03 in 10.0 mi WSW 26.5 mph 32.2 mph 0.00 in Snow Light Snow
6:07 PM 32.0 °F 19.2 °F 32.0 °F 100% 29.95 in 2.0 mi West 23.0 mph 36.8 mph N/A Snow Light Snow
6:13 PM 33.8 °F 23.2 °F 33.8 °F 100% 29.96 in 1.8 mi WNW 17.3 mph 36.8 mph N/A Snow Light Snow
6:18 PM 33.8 °F 25.3 °F 33.8 °F 100% 29.96 in 4.0 mi WNW 11.5 mph - N/A Snow Light Snow
6:21 PM 33.8 °F 25.8 °F 33.8 °F 100% 29.96 in 9.0 mi West 10.4 mph - N/A   Overcast
6:26 PM 33.8 °F 26.4 °F 33.8 °F 100% 29.96 in 10.0 mi West 9.2 mph - N/A   Mostly Cloudy
6:33 PM 32.0 °F 25.6 °F 32.0 °F 100% 29.96 in 10.0 mi SSW 6.9 mph - N/A   Scattered Clouds
6:58 PM 33.6 °F 26.8 °F 33.6 °F 100% 30.03 in 10.0 mi South 8.1 mph - 0.00 in   Clear
7:04 PM 32.0 °F 23.6 °F 32.0 °F 100% 29.97 in 10.0 mi South 10.4 mph - N/A Rain Light Rain
7:14 PM 32.0 °F 22.5 °F 32.0 °F 100% 29.98 in 10.0 mi SSW 12.7 mph - N/A   Clear
7:17 PM 32.0 °F 23.0 °F 32.0 °F 100% 29.98 in 10.0 mi SSW 11.5 mph - N/A Rain Light Rain
7:28 PM 33.8 °F 23.2 °F 33.8 °F 100% 29.99 in 10.0 mi SSW 17.3 mph 21.9 mph N/A   Clear
7:30 PM 33.8 °F 22.8 °F 33.8 °F 100% 29.99 in 10.0 mi SSW 18.4 mph 21.9 mph N/A Rain Light Rain
7:31 PM 33.8 °F 22.5 °F 33.8 °F 100% 29.99 in 10.0 mi SSW 19.6 mph 21.9 mph N/A   Clear
7:32 PM 33.8 °F 22.8 °F 33.8 °F 100% 29.99 in 10.0 mi SSW 18.4 mph - N/A Rain Light Rain
7:40 PM 33.8 °F 22.8 °F 33.8 °F 100% 30.00 in 10.0 mi SW 18.4 mph - N/A   Clear
7:48 PM 33.8 °F 22.5 °F 33.8 °F 100% 30.00 in 10.0 mi SSW 19.6 mph - N/A Rain Light Rain
7:58 PM 34.0 °F 24.2 °F 34.0 °F 100% 30.06 in 10.0 mi SSW 15.0 mph - 0.00 in Rain Light Rain
8:58 PM 33.3 °F 21.8 °F 33.3 °F 100% 30.09 in 10.0 mi SSW 19.6 mph 25.3 mph 0.00 in   Light Drizzle
9:01 PM 32.0 °F 20.1 °F 32.0 °F 100% 30.03 in 10.0 mi SSW 19.6 mph 25.3 mph N/A   Clear
9:08 PM 32.0 °F 21.2 °F 32.0 °F 100% 30.03 in 10.0 mi SSW 16.1 mph 26.5 mph N/A   Light Drizzle
9:19 PM 32.0 °F 20.1 °F 32.0 °F 100% 30.04 in 10.0 mi SSW 19.6 mph - N/A   Clear
9:21 PM 32.0 °F 20.1 °F 32.0 °F 100% 30.04 in 10.0 mi SSW 19.6 mph - N/A   Light Drizzle
9:58 PM 32.9 °F 22.0 °F 32.9 °F 100% 30.13 in 10.0 mi SW 17.3 mph - 0.00 in Snow Light Snow
10:10 PM 32.0 °F 20.8 °F 32.0 °F 100% 30.07 in 10.0 mi SW 17.3 mph 23.0 mph N/A   Clear
10:11 PM 32.0 °F 20.8 °F 32.0 °F 100% 30.07 in 10.0 mi SW 17.3 mph - N/A Snow Light Snow
10:21 PM 32.0 °F 20.8 °F 32.0 °F 100% 30.08 in 10.0 mi SSW 17.3 mph - N/A   Clear
10:35 PM 32.0 °F 21.6 °F 32.0 °F 100% 30.08 in 10.0 mi SSW 15.0 mph - N/A Snow Light Snow
10:57 PM 32.0 °F 22.5 °F 32.0 °F 100% 30.09 in 10.0 mi SSW 12.7 mph - N/A   Clear
10:58 PM 32.0 °F 22.1 °F 32.0 °F 100% 30.15 in 10.0 mi SSW 13.8 mph - 0.00 in   Clear
11:58 PM 30.9 °F 20.2 °F 30.9 °F 100% 30.20 in 10.0 mi SSW 15.0 mph - 0.00 in   Clear